^^
WesterhopeWX Station Historical Data
 
Daily Summary for November 20, 2019 Units:  Metric    English   Both
Daily Weekly Monthly Yearly Custom
  Current: High: Low: Average:
Temperature: 5.0 °C 6.6 °C 1.9 °C 3.9 °C
Dew Point: 1.7 °C 4.2 °C 0.6 °C 2.3 °C
Humidity: 79% 93% 78% 90%
Wind Speed: 3.2km/h 14.5km/h 0.0km/h 1.5km/h
Wind Gust: 3.2km/h 17.7km/h - -
WindSSW - - SSW
Pressure: 1009.4 hPa 1011.7 hPa 1009.4 hPa -
Precipitation: 6.9 mm      
Historical Graphs
 
 
Tabular Data for November 20, 2019
Time Temperature Dew Point Pressure Wind Wind Speed Wind Gust Humidity Rainfall Rate (Hourly) solar
00:00 2.1 °C 0.8 °C 1011.4 hPa SW 1.4 km/h 6.4 km/h 91% 0.3 mm 0.00 W/m2
00:05 2.0 °C 0.7 °C 1011.4 hPa SW 1.4 km/h 4.8 km/h 91% 0.3 mm 0.00 W/m2
00:10 1.9 °C 0.6 °C 1011.4 hPa SSW 6.4 km/h 6.4 km/h 91% 0.3 mm 0.00 W/m2
00:15 1.9 °C 0.6 °C 1011.7 hPa SSE 1.4 km/h 4.8 km/h 91% 0.3 mm 0.00 W/m2
00:20 1.9 °C 0.7 °C 1011.7 hPa South 1.4 km/h 9.7 km/h 92% 0.3 mm 0.00 W/m2
00:25 1.9 °C 0.7 °C 1011.4 hPa Calm   6.4 km/h 92% 0.3 mm 0.00 W/m2
00:30 1.9 °C 0.7 °C 1011.4 hPa WSW 1.4 km/h 3.2 km/h 92% 0.3 mm 0.00 W/m2
00:35 1.9 °C 0.7 °C 1011.4 hPa SSW 1.4 km/h 3.2 km/h 92% 0.3 mm 0.00 W/m2
00:40 1.9 °C 0.7 °C 1011.7 hPa Calm   6.4 km/h 92% 0.3 mm 0.00 W/m2
00:45 1.9 °C 0.7 °C 1011.7 hPa NW 3.2 km/h 3.2 km/h 92% 0.3 mm 0.00 W/m2
00:50 1.9 °C 0.7 °C 1011.4 hPa Calm   6.4 km/h 92% 0.3 mm 0.00 W/m2
00:55 1.9 °C 0.7 °C 1011.4 hPa Calm   9.7 km/h 92% 0.3 mm 0.00 W/m2
01:00 1.9 °C 0.7 °C 1011.4 hPa Calm   3.2 km/h 92% 0.0 mm 0.00 W/m2
01:05 2.0 °C 0.8 °C 1011.4 hPa Calm   6.4 km/h 92% 0.0 mm 0.00 W/m2
01:10 2.0 °C 0.8 °C 1011.4 hPa SSW 3.2 km/h 3.2 km/h 92% 0.3 mm 0.00 W/m2
01:15 2.0 °C 0.8 °C 1011.4 hPa Calm   3.2 km/h 92% 0.3 mm 0.00 W/m2
01:20 2.1 °C 0.9 °C 1011.4 hPa SSW 3.2 km/h 6.4 km/h 92% 0.3 mm 0.00 W/m2
01:25 2.1 °C 0.9 °C 1011.4 hPa West 1.4 km/h 1.6 km/h 92% 0.3 mm 0.00 W/m2
01:30 2.1 °C 1.1 °C 1011.4 hPa Calm   3.2 km/h 93% 0.3 mm 0.00 W/m2
01:35 2.1 °C 0.9 °C 1011.4 hPa Calm   3.2 km/h 92% 0.3 mm 0.00 W/m2
01:40 2.2 °C 1.2 °C 1011.4 hPa Calm   1.6 km/h 93% 0.3 mm 0.00 W/m2
01:45 2.2 °C 1.2 °C 1011.7 hPa Calm   3.2 km/h 93% 0.3 mm 0.00 W/m2
01:50 2.2 °C 1.2 °C 1011.7 hPa Calm     93% 0.3 mm 0.00 W/m2
01:55 2.2 °C 1.2 °C 1011.7 hPa Calm     93% 0.3 mm 0.00 W/m2
02:00 2.2 °C 1.2 °C 1011.7 hPa Calm     93% 0.3 mm 0.00 W/m2
02:05 2.2 °C 1.2 °C 1011.7 hPa Calm     93% 0.0 mm 0.00 W/m2
02:10 2.2 °C 1.2 °C 1011.7 hPa Calm     93% 0.0 mm 0.00 W/m2
02:15 2.2 °C 1.2 °C 1011.7 hPa Calm   1.6 km/h 93% 0.0 mm 0.00 W/m2
02:20 2.3 °C 1.3 °C 1011.7 hPa Calm     93% 0.0 mm 0.00 W/m2
02:25 2.3 °C 1.3 °C 1011.4 hPa Calm   1.6 km/h 93% 0.0 mm 0.00 W/m2
02:30 2.3 °C 1.3 °C 1011.4 hPa Calm     93% 0.3 mm 0.00 W/m2
02:35 2.3 °C 1.3 °C 1011.4 hPa South 3.2 km/h 3.2 km/h 93% 0.3 mm 0.00 W/m2
02:40 2.4 °C 1.4 °C 1011.4 hPa Calm   1.6 km/h 93% 0.3 mm 0.00 W/m2
02:45 2.4 °C 1.4 °C 1011.4 hPa Calm   4.8 km/h 93% 0.3 mm 0.00 W/m2
02:50 2.4 °C 1.4 °C 1011.4 hPa Calm   3.2 km/h 93% 0.3 mm 0.00 W/m2
02:55 2.4 °C 1.4 °C 1011.4 hPa South 1.4 km/h 11.3 km/h 93% 0.3 mm 0.00 W/m2
03:00 2.4 °C 1.4 °C 1011.1 hPa WSW 3.2 km/h 9.7 km/h 93% 0.3 mm 0.00 W/m2
03:05 2.4 °C 1.4 °C 1011.1 hPa Calm   3.2 km/h 93% 0.3 mm 0.00 W/m2
03:10 2.4 °C 1.4 °C 1011.1 hPa Calm   3.2 km/h 93% 0.3 mm 0.00 W/m2
03:15 2.4 °C 1.4 °C 1011.1 hPa Calm     93% 0.3 mm 0.00 W/m2
03:20 2.4 °C 1.4 °C 1011.1 hPa Calm   4.8 km/h 93% 0.3 mm 0.00 W/m2
03:25 2.4 °C 1.4 °C 1011.1 hPa SSE 1.4 km/h 4.8 km/h 93% 0.3 mm 0.00 W/m2
03:30 2.4 °C 1.4 °C 1011.1 hPa SW 3.2 km/h 3.2 km/h 93% 0.0 mm 0.00 W/m2
03:35 2.5 °C 1.5 °C 1011.1 hPa SSW 1.4 km/h 4.8 km/h 93% 0.0 mm 0.00 W/m2
03:40 2.5 °C 1.5 °C 1010.7 hPa Calm   4.8 km/h 93% 0.3 mm 0.00 W/m2
03:45 2.6 °C 1.6 °C 1011.1 hPa South 1.4 km/h 6.4 km/h 93% 0.3 mm 0.00 W/m2
03:50 2.6 °C 1.6 °C 1010.7 hPa East 1.4 km/h 1.6 km/h 93% 0.3 mm 0.00 W/m2
03:55 2.5 °C 1.5 °C 1010.7 hPa Calm   3.2 km/h 93% 0.3 mm 0.00 W/m2
04:00 2.5 °C 1.5 °C 1010.7 hPa Calm   8.0 km/h 93% 0.3 mm 0.00 W/m2
04:05 2.5 °C 1.5 °C 1010.7 hPa SW 1.4 km/h 6.4 km/h 93% 0.3 mm 0.00 W/m2
04:10 2.6 °C 1.6 °C 1010.7 hPa Calm   3.2 km/h 93% 0.3 mm 0.00 W/m2
04:15 2.6 °C 1.6 °C 1010.7 hPa SSE 3.2 km/h 6.4 km/h 93% 0.3 mm 0.00 W/m2
04:20 2.6 °C 1.6 °C 1010.7 hPa SSW 1.4 km/h 3.2 km/h 93% 0.3 mm 0.00 W/m2
04:25 2.6 °C 1.6 °C 1010.7 hPa Calm   1.6 km/h 93% 0.3 mm 0.00 W/m2
04:30 2.6 °C 1.6 °C 1010.7 hPa ESE 1.4 km/h 3.2 km/h 93% 0.5 mm 0.00 W/m2
04:35 2.6 °C 1.6 °C 1010.7 hPa Calm     93% 0.5 mm 0.00 W/m2
04:40 2.6 °C 1.6 °C 1010.7 hPa SSW 4.7 km/h 8.0 km/h 93% 0.3 mm 0.00 W/m2
04:45 2.6 °C 1.6 °C 1010.7 hPa Calm   1.6 km/h 93% 0.3 mm 0.00 W/m2
04:50 2.6 °C 1.6 °C 1010.7 hPa Calm   3.2 km/h 93% 0.3 mm 0.00 W/m2
04:55 2.6 °C 1.6 °C 1010.7 hPa Calm   4.8 km/h 93% 0.3 mm 0.00 W/m2
05:00 2.6 °C 1.6 °C 1010.7 hPa Calm   1.6 km/h 93% 0.3 mm 0.00 W/m2
05:05 2.6 °C 1.6 °C 1010.7 hPa SE 1.4 km/h 4.8 km/h 93% 0.3 mm 0.00 W/m2
05:10 2.6 °C 1.6 °C 1010.7 hPa Calm   3.2 km/h 93% 0.3 mm 0.00 W/m2
05:15 2.6 °C 1.6 °C 1010.7 hPa Calm   6.4 km/h 93% 0.5 mm 0.00 W/m2
05:20 2.6 °C 1.6 °C 1010.7 hPa Calm   1.6 km/h 93% 0.5 mm 0.00 W/m2
05:25 2.7 °C 1.7 °C 1010.7 hPa Calm   4.8 km/h 93% 0.5 mm 0.00 W/m2
05:30 2.7 °C 1.7 °C 1010.7 hPa Calm   9.7 km/h 93% 0.3 mm 0.00 W/m2
05:35 2.7 °C 1.7 °C 1010.7 hPa South 3.2 km/h 8.0 km/h 93% 0.3 mm 0.00 W/m2
05:40 2.7 °C 1.7 °C 1010.7 hPa South 3.2 km/h 11.3 km/h 93% 0.3 mm 0.00 W/m2
05:45 2.7 °C 1.7 °C 1010.7 hPa Calm   1.6 km/h 93% 0.3 mm 0.00 W/m2
05:50 2.7 °C 1.7 °C 1010.7 hPa SW 6.4 km/h 9.7 km/h 93% 0.5 mm 0.00 W/m2
05:55 2.8 °C 1.8 °C 1010.7 hPa South 4.7 km/h 6.4 km/h 93% 0.5 mm 0.00 W/m2
06:00 2.8 °C 1.8 °C 1010.7 hPa SW 1.4 km/h 6.4 km/h 93% 0.5 mm 0.00 W/m2
06:05 2.8 °C 1.8 °C 1010.7 hPa SSW 3.2 km/h 11.3 km/h 93% 0.5 mm 0.00 W/m2
06:10 2.8 °C 1.8 °C 1010.7 hPa SSW 4.7 km/h 6.4 km/h 93% 0.5 mm 0.00 W/m2
06:15 2.9 °C 1.9 °C 1010.7 hPa South 4.7 km/h 9.7 km/h 93% 0.3 mm 0.00 W/m2
06:20 2.9 °C 1.9 °C 1010.7 hPa South 6.4 km/h 6.4 km/h 93% 0.3 mm 0.00 W/m2
06:25 2.9 °C 1.9 °C 1010.7 hPa SSW 1.4 km/h 3.2 km/h 93% 0.5 mm 0.00 W/m2
06:30 2.9 °C 1.9 °C 1010.7 hPa SW 3.2 km/h 4.8 km/h 93% 0.5 mm 0.00 W/m2
06:35 2.9 °C 1.9 °C 1010.7 hPa Calm   6.4 km/h 93% 0.5 mm 0.00 W/m2
06:40 2.9 °C 1.9 °C 1010.7 hPa SSE 1.4 km/h 3.2 km/h 93% 0.5 mm 0.00 W/m2
06:45 2.9 °C 1.9 °C 1010.7 hPa Calm   3.2 km/h 93% 0.5 mm 0.00 W/m2
06:50 2.9 °C 1.9 °C 1010.7 hPa Calm   1.6 km/h 93% 0.3 mm 0.00 W/m2
06:55 2.9 °C 1.9 °C 1010.7 hPa SSW 1.4 km/h 6.4 km/h 93% 0.5 mm 0.00 W/m2
07:00 2.8 °C 1.8 °C 1010.7 hPa Calm   1.6 km/h 93% 0.5 mm 0.00 W/m2
07:05 2.9 °C 1.9 °C 1010.7 hPa Calm   3.2 km/h 93% 0.5 mm 0.00 W/m2
07:10 2.9 °C 1.9 °C 1010.7 hPa Calm   1.6 km/h 93% 0.5 mm 0.00 W/m2
07:15 2.9 °C 1.9 °C 1010.7 hPa Calm   1.6 km/h 93% 0.5 mm 0.00 W/m2
07:20 2.9 °C 1.9 °C 1010.7 hPa SE 4.7 km/h 6.4 km/h 93% 0.5 mm 0.00 W/m2
07:25 2.9 °C 1.9 °C 1010.7 hPa SSW 1.4 km/h 9.7 km/h 93% 0.5 mm 0.00 W/m2
07:30 2.9 °C 1.9 °C 1010.7 hPa SSE 1.4 km/h 3.2 km/h 93% 0.5 mm 0.00 W/m2
07:35 3.0 °C 2.0 °C 1011.1 hPa SE 3.2 km/h 6.4 km/h 93% 0.5 mm 0.00 W/m2
07:40 3.0 °C 2.0 °C 1010.7 hPa SE 3.2 km/h 3.2 km/h 93% 0.5 mm 0.00 W/m2
07:45 3.0 °C 2.0 °C 1010.7 hPa South 3.2 km/h 8.0 km/h 93% 0.5 mm 0.00 W/m2
07:50 3.1 °C 2.1 °C 1010.7 hPa SSW 4.7 km/h 6.4 km/h 93% 0.5 mm 0.00 W/m2
07:55 3.1 °C 2.1 °C 1010.7 hPa Calm   4.8 km/h 93% 0.5 mm 0.00 W/m2
08:00 3.1 °C 2.1 °C 1011.1 hPa SW 1.4 km/h 9.7 km/h 93% 0.5 mm 0.00 W/m2
08:05 3.2 °C 2.2 °C 1010.7 hPa SSW 1.4 km/h 3.2 km/h 93% 0.5 mm 0.00 W/m2
08:10 3.2 °C 2.2 °C 1010.7 hPa SW 3.2 km/h 4.8 km/h 93% 0.5 mm 5.00 W/m2
08:15 3.3 °C 2.3 °C 1010.7 hPa Calm   14.5 km/h 93% 0.5 mm 9.00 W/m2
08:20 3.4 °C 2.4 °C 1010.7 hPa Calm   8.0 km/h 93% 0.5 mm 11.00 W/m2
08:25 3.4 °C 2.4 °C 1011.1 hPa Calm   6.4 km/h 93% 0.5 mm 11.00 W/m2
08:30 3.4 °C 2.4 °C 1010.7 hPa Calm   1.6 km/h 93% 0.5 mm 11.00 W/m2
08:35 3.4 °C 2.4 °C 1011.1 hPa ESE 1.4 km/h 6.4 km/h 93% 0.5 mm 12.00 W/m2
08:40 3.5 °C 2.5 °C 1011.1 hPa Calm   1.6 km/h 93% 0.5 mm 16.00 W/m2
08:45 3.5 °C 2.5 °C 1011.1 hPa WSW 1.4 km/h 4.8 km/h 93% 0.5 mm 26.00 W/m2
08:50 3.6 °C 2.6 °C 1011.1 hPa WSW 3.2 km/h 11.3 km/h 93% 0.5 mm 33.00 W/m2
08:55 3.8 °C 2.8 °C 1011.1 hPa SSW 6.4 km/h 11.3 km/h 93% 0.5 mm 53.00 W/m2
09:00 3.8 °C 2.8 °C 1011.1 hPa SSE 14.5 km/h 14.5 km/h 93% 0.5 mm 40.00 W/m2
09:05 3.9 °C 2.9 °C 1011.1 hPa South 1.4 km/h 3.2 km/h 93% 0.5 mm 47.00 W/m2
09:10 3.9 °C 2.9 °C 1011.1 hPa Calm   9.7 km/h 93% 0.5 mm 44.00 W/m2
09:15 4.1 °C 3.1 °C 1011.1 hPa SSW 3.2 km/h 3.2 km/h 93% 0.5 mm 54.00 W/m2
09:20 4.0 °C 3.0 °C 1011.1 hPa Calm   12.9 km/h 93% 0.5 mm 56.00 W/m2
09:25 4.1 °C 3.1 °C 1011.1 hPa Calm   9.7 km/h 93% 0.5 mm 58.00 W/m2
09:30 4.1 °C 3.1 °C 1011.1 hPa Calm   12.9 km/h 93% 0.5 mm 54.00 W/m2
09:35 4.2 °C 3.0 °C 1011.1 hPa SSW 1.4 km/h 9.7 km/h 92% 0.5 mm 63.00 W/m2
09:40 4.2 °C 3.0 °C 1011.4 hPa SSW 1.4 km/h 6.4 km/h 92% 0.5 mm 53.00 W/m2
09:45 4.2 °C 3.0 °C 1011.1 hPa SW 3.2 km/h 4.8 km/h 92% 0.5 mm 46.00 W/m2
09:50 4.3 °C 3.1 °C 1011.1 hPa Calm   1.6 km/h 92% 0.5 mm 44.00 W/m2
09:55 4.3 °C 3.1 °C 1011.4 hPa SSE 4.7 km/h 6.4 km/h 92% 0.5 mm 46.00 W/m2
10:00 4.3 °C 3.1 °C 1011.4 hPa SW 6.4 km/h 6.4 km/h 92% 0.5 mm 58.00 W/m2
10:05 4.3 °C 3.1 °C 1011.4 hPa SSE 3.2 km/h 3.2 km/h 92% 0.5 mm 56.00 W/m2
10:10 4.3 °C 3.1 °C 1011.4 hPa SSW 6.4 km/h 6.4 km/h 92% 0.5 mm 49.00 W/m2
10:15 4.3 °C 3.1 °C 1011.4 hPa South 3.2 km/h 16.1 km/h 92% 0.5 mm 37.00 W/m2
10:20 4.4 °C 3.1 °C 1011.4 hPa WSW 1.4 km/h 14.5 km/h 91% 0.5 mm 32.00 W/m2
10:25 4.4 °C 3.2 °C 1011.4 hPa WNW 3.2 km/h 8.0 km/h 92% 0.5 mm 46.00 W/m2
10:30 4.5 °C 3.2 °C 1011.4 hPa Calm   6.4 km/h 91% 0.5 mm 60.00 W/m2
10:35 4.6 °C 3.3 °C 1011.4 hPa SSW 1.4 km/h 12.9 km/h 91% 0.5 mm 53.00 W/m2
10:40 4.6 °C 3.3 °C 1011.4 hPa SSE 3.2 km/h 3.2 km/h 91% 0.5 mm 39.00 W/m2
10:45 4.6 °C 3.3 °C 1011.1 hPa South 1.4 km/h 4.8 km/h 91% 0.5 mm 54.00 W/m2
10:50 4.6 °C 3.3 °C 1011.1 hPa South 4.7 km/h 4.8 km/h 91% 0.8 mm 49.00 W/m2
10:55 4.7 °C 3.4 °C 1011.1 hPa SSE 3.2 km/h 6.4 km/h 91% 0.5 mm 74.00 W/m2
11:00 4.7 °C 3.2 °C 1011.1 hPa SSE 3.2 km/h 8.0 km/h 90% 0.5 mm 81.00 W/m2
11:05 4.8 °C 3.3 °C 1011.1 hPa South 1.4 km/h 8.0 km/h 90% 0.5 mm 62.00 W/m2
11:10 4.8 °C 3.3 °C 1011.1 hPa SW 3.2 km/h 3.2 km/h 90% 0.5 mm 56.00 W/m2
11:15 4.9 °C 3.4 °C 1011.1 hPa Calm   3.2 km/h 90% 0.5 mm 39.00 W/m2
11:20 4.9 °C 3.4 °C 1011.1 hPa South 1.4 km/h 1.6 km/h 90% 0.5 mm 58.00 W/m2
11:25 4.9 °C 3.4 °C 1011.1 hPa Calm   1.6 km/h 90% 0.8 mm 51.00 W/m2
11:30 5.0 °C 3.5 °C 1011.1 hPa Calm   1.6 km/h 90% 0.8 mm 47.00 W/m2
11:35 5.1 °C 3.6 °C 1010.7 hPa South 1.4 km/h 1.6 km/h 90% 0.5 mm 54.00 W/m2
11:40 5.1 °C 3.6 °C 1010.7 hPa Calm   4.8 km/h 90% 0.5 mm 76.00 W/m2
11:45 5.2 °C 3.7 °C 1010.7 hPa Calm   3.2 km/h 90% 0.5 mm 127.00 W/m2
11:50 5.4 °C 3.7 °C 1010.7 hPa South 3.2 km/h 8.0 km/h 89% 0.5 mm 174.00 W/m2
11:55 5.7 °C 3.9 °C 1010.7 hPa Calm   3.2 km/h 88% 0.5 mm 193.00 W/m2
12:00 5.8 °C 3.8 °C 1010.7 hPa SSE 1.4 km/h 4.8 km/h 87% 0.5 mm 176.00 W/m2
12:05 6.1 °C 4.1 °C 1010.7 hPa North 1.4 km/h 3.2 km/h 87% 0.5 mm 207.00 W/m2
12:10 6.2 °C 4.0 °C 1010.7 hPa Calm   4.8 km/h 86% 0.8 mm 186.00 W/m2
12:15 6.3 °C 4.1 °C 1010.4 hPa SE 1.4 km/h 6.4 km/h 86% 0.5 mm 169.00 W/m2
12:20 6.5 °C 4.2 °C 1010.4 hPa WSW 3.2 km/h 8.0 km/h 85% 0.5 mm 188.00 W/m2
12:25 6.5 °C 4.2 °C 1010.4 hPa Calm   3.2 km/h 85% 0.5 mm 213.00 W/m2
12:30 6.6 °C 4.1 °C 1010.4 hPa Calm   4.8 km/h 84% 0.5 mm 148.00 W/m2
12:35 6.5 °C 4.0 °C 1010.4 hPa SE 1.4 km/h 4.8 km/h 84% 0.5 mm 156.00 W/m2
12:40 6.4 °C 4.1 °C 1010.4 hPa SW 3.2 km/h 6.4 km/h 85% 0.5 mm 167.00 W/m2
12:45 6.3 °C 4.0 °C 1010.4 hPa WSW 1.4 km/h 3.2 km/h 85% 0.8 mm 163.00 W/m2
12:50 6.4 °C 3.9 °C 1010.4 hPa South 1.4 km/h 8.0 km/h 84% 0.5 mm 202.00 W/m2
12:55 6.5 °C 4.0 °C 1010.0 hPa Calm   4.8 km/h 84% 0.5 mm 167.00 W/m2
13:00 6.6 °C 4.1 °C 1010.0 hPa ENE 3.2 km/h 4.8 km/h 84% 0.5 mm 153.00 W/m2
13:05 6.6 °C 4.1 °C 1010.0 hPa Calm   3.2 km/h 84% 0.8 mm 165.00 W/m2
13:10 6.6 °C 4.1 °C 1010.0 hPa Calm     84% 0.5 mm 137.00 W/m2
13:15 6.5 °C 4.0 °C 1010.0 hPa SSE 1.4 km/h 4.8 km/h 84% 0.5 mm 95.00 W/m2
13:20 6.4 °C 3.9 °C 1010.0 hPa Calm   4.8 km/h 84% 0.8 mm 90.00 W/m2
13:25 6.4 °C 3.7 °C 1010.0 hPa Calm   3.2 km/h 83% 0.8 mm 83.00 W/m2
13:30 6.3 °C 3.6 °C 1010.0 hPa SSE 1.4 km/h 3.2 km/h 83% 0.8 mm 93.00 W/m2
13:35 6.3 °C 3.6 °C 1010.0 hPa SSW 1.4 km/h 6.4 km/h 83% 0.5 mm 128.00 W/m2
13:40 6.3 °C 3.5 °C 1009.7 hPa SSE 1.4 km/h 8.0 km/h 82% 0.5 mm 104.00 W/m2
13:45 6.3 °C 3.5 °C 1009.7 hPa SW 1.4 km/h 8.0 km/h 82% 0.5 mm 121.00 W/m2
13:50 6.3 °C 3.5 °C 1009.7 hPa Calm   6.4 km/h 82% 0.5 mm 111.00 W/m2
13:55 6.3 °C 3.5 °C 1009.7 hPa SSE 3.2 km/h 17.7 km/h 82% 0.5 mm 114.00 W/m2
14:00 6.3 °C 3.5 °C 1009.7 hPa SSW 4.7 km/h 6.4 km/h 82% 0.5 mm 109.00 W/m2
14:05 6.3 °C 3.5 °C 1009.4 hPa Calm   11.3 km/h 82% 0.5 mm 105.00 W/m2
14:10 6.3 °C 3.5 °C 1009.4 hPa SSW 1.4 km/h 3.2 km/h 82% 0.5 mm 100.00 W/m2
14:15 6.3 °C 3.5 °C 1009.4 hPa Calm   3.2 km/h 82% 0.5 mm 90.00 W/m2
14:20 6.3 °C 3.5 °C 1009.7 hPa SSW 1.4 km/h 1.6 km/h 82% 0.5 mm 84.00 W/m2
14:25 6.2 °C 3.5 °C 1009.7 hPa Calm   1.6 km/h 83% 0.5 mm 74.00 W/m2
14:30 6.2 °C 3.5 °C 1009.7 hPa Calm   3.2 km/h 83% 0.5 mm 70.00 W/m2
14:35 6.2 °C 3.5 °C 1009.7 hPa Calm   1.6 km/h 83% 0.5 mm 62.00 W/m2
14:40 6.2 °C 3.5 °C 1009.7 hPa Calm   3.2 km/h 83% 0.8 mm 53.00 W/m2
14:45 6.2 °C 3.4 °C 1009.7 hPa Calm   4.8 km/h 82% 0.5 mm 49.00 W/m2
14:50 6.1 °C 3.3 °C 1009.7 hPa Calm   3.2 km/h 82% 0.5 mm 44.00 W/m2
14:55 6.0 °C 3.0 °C 1009.7 hPa South 3.2 km/h 6.4 km/h 81% 0.5 mm 39.00 W/m2
15:00 6.0 °C 2.8 °C 1009.4 hPa WSW 1.4 km/h 6.4 km/h 80% 0.8 mm 35.00 W/m2
15:05 6.0 °C 2.6 °C 1009.7 hPa West 1.4 km/h 3.2 km/h 79% 0.5 mm 33.00 W/m2
15:10 5.9 °C 2.4 °C 1009.4 hPa Calm   1.6 km/h 78% 0.5 mm 30.00 W/m2
15:15 5.9 °C 2.4 °C 1009.4 hPa SSW 4.7 km/h 4.8 km/h 78% 0.8 mm 26.00 W/m2
15:20 5.9 °C 2.4 °C 1009.4 hPa SE 1.4 km/h 1.6 km/h 78% 0.8 mm 21.00 W/m2
15:25 5.8 °C 2.3 °C 1009.4 hPa SW 3.2 km/h 4.8 km/h 78% 0.5 mm 18.00 W/m2
15:30 5.7 °C 2.3 °C 1009.4 hPa Calm   4.8 km/h 79% 0.5 mm 16.00 W/m2
15:35 5.6 °C 2.1 °C 1009.4 hPa SSW 3.2 km/h 6.4 km/h 78% 0.5 mm 12.00 W/m2
15:40 5.6 °C 2.2 °C 1009.4 hPa South 3.2 km/h 12.9 km/h 79% 0.5 mm 11.00 W/m2
15:45 5.5 °C 2.1 °C 1009.4 hPa SSE 1.4 km/h 4.8 km/h 79% 0.5 mm 7.00 W/m2
15:50 5.4 °C 2.1 °C 1009.4 hPa Calm   3.2 km/h 79% 0.5 mm 5.00 W/m2
15:55 5.4 °C 2.1 °C 1009.4 hPa WSW 1.4 km/h 3.2 km/h 79% 0.5 mm 0.00 W/m2
16:00 5.3 °C 2.0 °C 1009.4 hPa WNW 1.4 km/h 4.8 km/h 79% 0.5 mm 0.00 W/m2
16:05 5.3 °C 2.0 °C 1009.4 hPa Calm   6.4 km/h 79% 0.5 mm 0.00 W/m2
16:10 5.2 °C 1.9 °C 1009.4 hPa Calm   3.2 km/h 79% 0.5 mm 0.00 W/m2
16:15 5.1 °C 1.8 °C 1009.4 hPa Calm   3.2 km/h 79% 0.5 mm 0.00 W/m2
16:20 5.1 °C 1.8 °C 1009.4 hPa Calm   1.6 km/h 79% 0.5 mm 0.00 W/m2
16:25 5.0 °C 1.7 °C 1009.4 hPa SSW 3.2 km/h 3.2 km/h 79% 0.5 mm 0.00 W/m2
Westerhope, Newcastle upon Tyne, UK
Compliments of Weather Underground - 4 mb